| time (UTC) | temp F | wind direction | speed MPH | gust MPH | rain 1hr in | rain 24hr in | rain mn in | humidity % | barometer mb |
| 20260831155106 | 60 | 10 | 0.0 | 2.0 | 0.00 | 0.00 | 0.00 | 62 | 936.8 |
| 20260831154602 | 60 | 357 | 2.0 | 3.0 | 0.00 | 0.00 | 0.00 | 62 | 937.0 |
| 20260831154102 | 60 | 353 | 2.0 | 3.0 | 0.00 | 0.00 | 0.00 | 63 | 937.0 |
| 20260831153601 | 59 | 359 | 2.0 | 3.0 | 0.00 | 0.00 | 0.00 | 64 | 937.0 |
| 20260831153058 | 59 | 1 | 1.0 | 2.0 | 0.00 | 0.00 | 0.00 | 63 | 937.0 |
| 20260831152553 | 59 | 4 | 3.0 | 3.0 | 0.00 | 0.00 | 0.00 | 65 | 936.9 |
| 20260831152049 | 59 | 15 | 2.0 | 2.0 | 0.00 | 0.00 | 0.00 | 65 | 937.0 |
| 20260831151548 | 59 | 16 | 2.0 | 2.0 | 0.00 | 0.00 | 0.00 | 65 | 937.2 |
| 20260831151043 | 60 | 47 | 0.0 | 0.0 | 0.00 | 0.00 | 0.00 | 64 | 937.0 |
| 20260831150538 | 59 | 55 | 0.0 | 0.0 | 0.00 | 0.00 | 0.00 | 65 | 937.0 |
| 20260831150034 | 58 | 46 | 0.0 | 0.0 | 0.00 | 0.00 | 0.00 | 66 | 937.3 |
| 20260831145528 | 57 | 45 | 0.0 | 1.0 | 0.00 | 0.00 | 0.00 | 68 | 937.0 |
| 20260831145024 | 57 | 66 | 1.0 | 3.0 | 0.00 | 0.00 | 0.00 | 67 | 937.2 |
| 20260831144520 | 56 | 53 | 0.0 | 1.0 | 0.00 | 0.00 | 0.00 | 68 | 937.0 |
| 20260831144015 | 55 | 65 | 1.0 | 2.0 | 0.00 | 0.00 | 0.00 | 69 | 936.9 |
| 20260831143509 | 54 | 75 | 0.0 | 2.0 | 0.00 | 0.00 | 0.00 | 71 | 937.0 |
| 20260831143005 | 53 | 81 | 1.0 | 2.0 | 0.00 | 0.00 | 0.00 | 72 | 937.0 |
| 20260831142501 | 52 | 46 | 0.0 | 1.0 | 0.00 | 0.00 | 0.00 | 74 | 937.2 |
| 20260831141956 | 52 | 83 | 1.0 | 2.0 | 0.00 | 0.00 | 0.00 | 74 | 936.9 |
| 20260831141455 | 51 | 85 | 1.0 | 5.0 | 0.00 | 0.00 | 0.00 | 75 | 936.9 |
| 20260831140950 | 51 | 78 | 1.0 | 2.0 | 0.00 | 0.00 | 0.00 | 76 | 936.6 |
| 20260831140445 | 50 | 64 | 1.0 | 3.0 | 0.00 | 0.00 | 0.00 | 76 | 936.5 |
| 20260831135944 | 50 | 46 | 0.0 | 0.0 | 0.00 | 0.00 | 0.00 | 77 | 936.1 |
| 20260831135443 | 50 | 83 | 2.0 | 3.0 | 0.00 | 0.00 | 0.00 | 77 | 936.2 |
| 20260831134938 | 49 | 50 | 0.0 | 0.0 | 0.00 | 0.00 | 0.00 | 79 | 936.0 |
| 20260831134434 | 48 | 76 | 1.0 | 2.0 | 0.00 | 0.00 | 0.00 | 80 | 936.1 |
| 20260831133934 | 47 | 79 | 1.0 | 2.0 | 0.00 | 0.00 | 0.00 | 82 | 936.1 |
| 20260831133434 | 46 | 48 | 0.0 | 1.0 | 0.00 | 0.00 | 0.00 | 83 | 935.9 |
| 20260831132929 | 46 | 70 | 1.0 | 3.0 | 0.00 | 0.00 | 0.00 | 84 | 935.8 |
| 20260831132425 | 45 | 79 | 2.0 | 3.0 | 0.00 | 0.00 | 0.00 | 85 | 935.7 |
| 20260831131924 | 45 | 72 | 2.0 | 2.0 | 0.00 | 0.00 | 0.00 | 87 | 935.8 |
| 20260831131419 | 44 | 58 | 1.0 | 2.0 | 0.00 | 0.00 | 0.00 | 87 | 935.7 |
| 20260831130915 | 43 | 62 | 2.0 | 3.0 | 0.00 | 0.00 | 0.00 | 88 | 935.7 |
| 20260831130410 | 43 | 129 | 2.0 | 3.0 | 0.00 | 0.00 | 0.00 | 87 | 935.8 |
| 20260831125909 | 44 | 79 | 1.0 | 2.0 | 0.00 | 0.00 | 0.00 | 87 | 935.7 |
| 20260831125405 | 44 | 86 | 2.0 | 3.0 | 0.00 | 0.00 | 0.00 | 88 | 935.7 |
| 20260831124900 | 44 | 110 | 2.0 | 2.0 | 0.00 | 0.00 | 0.00 | 88 | 935.8 |
| 20260831124356 | 43 | 95 | 2.0 | 2.0 | 0.00 | 0.00 | 0.00 | 88 | 935.7 |
| 20260831123856 | 44 | 47 | 0.0 | 2.0 | 0.00 | 0.00 | 0.00 | 88 | 935.7 |
| 20260831123355 | 44 | 55 | 0.0 | 3.0 | 0.00 | 0.00 | 0.00 | 88 | 935.7 |
| 20260831122855 | 43 | 72 | 2.0 | 2.0 | 0.00 | 0.00 | 0.00 | 88 | 935.7 |
| 20260831122351 | 43 | 91 | 2.0 | 2.0 | 0.00 | 0.00 | 0.00 | 88 | 935.8 |
| 20260831121846 | 44 | 98 | 2.0 | 2.0 | 0.00 | 0.00 | 0.00 | 88 | 935.7 |
| 20260831121342 | 44 | 65 | 1.0 | 2.0 | 0.00 | 0.00 | 0.00 | 87 | 935.8 |
| 20260831120837 | 44 | 71 | 1.0 | 2.0 | 0.00 | 0.00 | 0.00 | 87 | 935.6 |
| 20260831120331 | 44 | 79 | 2.0 | 2.0 | 0.00 | 0.00 | 0.00 | 87 | 935.8 |
| 20260831115827 | 44 | 49 | 0.0 | 2.0 | 0.00 | 0.00 | 0.00 | 87 | 935.5 |
| 20260831115324 | 44 | 85 | 3.0 | 3.0 | 0.00 | 0.00 | 0.00 | 87 | 935.6 |
| 20260831114822 | 44 | 88 | 3.0 | 3.0 | 0.00 | 0.00 | 0.00 | 87 | 935.6 |
| 20260831114321 | 44 | 76 | 3.0 | 3.0 | 0.00 | 0.00 | 0.00 | 87 | 935.5 |
| 20260831113818 | 44 | 60 | 2.0 | 2.0 | 0.00 | 0.00 | 0.00 | 87 | 935.6 |
| 20260831113317 | 44 | 67 | 1.0 | 2.0 | 0.00 | 0.00 | 0.00 | 87 | 935.5 |
| 20260831112812 | 45 | 34 | 0.0 | 2.0 | 0.00 | 0.00 | 0.00 | 87 | 935.6 |
| 20260831112307 | 45 | 87 | 1.0 | 2.0 | 0.00 | 0.00 | 0.00 | 87 | 935.5 |
| 20260831111802 | 45 | 69 | 1.0 | 2.0 | 0.00 | 0.00 | 0.00 | 88 | 935.6 |
| 20260831111259 | 44 | 92 | 2.0 | 3.0 | 0.00 | 0.00 | 0.00 | 88 | 935.5 |
| 20260831110754 | 44 | 75 | 1.0 | 2.0 | 0.00 | 0.00 | 0.00 | 87 | 935.6 |
| 20260831110249 | 45 | 79 | 1.0 | 2.0 | 0.00 | 0.00 | 0.00 | 87 | 935.6 |
| 20260831105747 | 45 | 44 | 0.0 | 0.0 | 0.00 | 0.00 | 0.00 | 86 | 935.6 |
| 20260831105243 | 45 | 62 | 1.0 | 2.0 | 0.00 | 0.00 | 0.00 | 86 | 935.7 |
| 20260831104738 | 46 | 78 | 2.0 | 3.0 | 0.00 | 0.00 | 0.00 | 86 | 935.7 |
| 20260831104235 | 46 | 82 | 2.0 | 2.0 | 0.00 | 0.00 | 0.00 | 86 | 935.7 |
| 20260831103734 | 46 | 80 | 3.0 | 3.0 | 0.00 | 0.00 | 0.00 | 86 | 935.6 |
| 20260831103230 | 46 | 68 | 1.0 | 2.0 | 0.00 | 0.00 | 0.00 | 86 | 935.7 |
| 20260831102729 | 46 | 31 | 0.0 | 1.0 | 0.00 | 0.00 | 0.00 | 86 | 935.3 |
| 20260831102225 | 46 | 130 | 2.0 | 3.0 | 0.00 | 0.00 | 0.00 | 86 | 935.6 |
| 20260831101720 | 46 | 41 | 0.0 | 2.0 | 0.00 | 0.00 | 0.00 | 86 | 935.7 |
| 20260831101216 | 46 | 97 | 1.0 | 3.0 | 0.00 | 0.00 | 0.00 | 86 | 935.6 |
| 20260831100711 | 46 | 77 | 1.0 | 3.0 | 0.00 | 0.00 | 0.00 | 86 | 935.3 |
| 20260831100207 | 46 | 73 | 0.0 | 2.0 | 0.00 | 0.00 | 0.00 | 86 | 935.5 |
| 20260831095705 | 46 | 52 | 0.0 | 1.0 | 0.00 | 0.00 | 0.00 | 86 | 935.6 |
| 20260831095201 | 46 | 44 | 0.0 | 1.0 | 0.00 | 0.00 | 0.00 | 86 | 935.5 |
| 20260831094656 | 46 | 68 | 0.0 | 1.0 | 0.00 | 0.00 | 0.00 | 86 | 935.5 |
| 20260831094152 | 46 | 62 | 1.0 | 2.0 | 0.00 | 0.00 | 0.00 | 85 | 935.1 |
| 20260831093647 | 47 | 113 | 0.0 | 0.0 | 0.00 | 0.00 | 0.00 | 85 | 935.3 |
| 20260831093143 | 47 | 114 | 0.0 | 0.0 | 0.00 | 0.00 | 0.00 | 86 | 935.1 |
| 20260831092639 | 47 | 67 | 0.0 | 0.0 | 0.00 | 0.00 | 0.00 | 86 | 935.6 |
| 20260831092135 | 47 | 49 | 0.0 | 0.0 | 0.00 | 0.00 | 0.00 | 86 | 935.2 |
| 20260831091634 | 47 | 48 | 0.0 | 0.0 | 0.00 | 0.00 | 0.00 | 86 | 935.5 |
| 20260831091130 | 47 | 63 | 0.0 | 0.0 | 0.00 | 0.00 | 0.00 | 85 | 935.5 |
| 20260831090625 | 48 | 56 | 0.0 | 0.0 | 0.00 | 0.00 | 0.00 | 85 | 935.2 |
| 20260831090121 | 48 | 51 | 0.0 | 0.0 | 0.00 | 0.00 | 0.00 | 85 | 935.3 |
| 20260831085616 | 48 | 70 | 0.0 | 0.0 | 0.00 | 0.00 | 0.00 | 85 | 935.3 |
| 20260831085112 | 48 | 59 | 0.0 | 0.0 | 0.00 | 0.00 | 0.00 | 85 | 935.3 |
| 20260831084607 | 48 | 79 | 0.0 | 0.0 | 0.00 | 0.00 | 0.00 | 85 | 935.2 |
| 20260831084103 | 48 | 53 | 0.0 | 0.0 | 0.00 | 0.00 | 0.00 | 85 | 935.1 |
| 20260831083559 | 48 | 81 | 0.0 | 0.0 | 0.00 | 0.00 | 0.00 | 86 | 935.2 |
| 20260831083054 | 47 | 51 | 0.0 | 0.0 | 0.00 | 0.00 | 0.00 | 86 | 935.2 |
| 20260831082553 | 48 | 67 | 0.0 | 0.0 | 0.00 | 0.00 | 0.00 | 86 | 935.2 |
| 20260831082048 | 48 | 63 | 0.0 | 2.0 | 0.00 | 0.00 | 0.00 | 86 | 935.2 |
| 20260831081544 | 48 | 137 | 2.0 | 5.0 | 0.00 | 0.00 | 0.00 | 86 | 935.3 |
| 20260831081040 | 48 | 111 | 0.0 | 0.0 | 0.00 | 0.00 | 0.00 | 86 | 935.5 |
| 20260831080540 | 48 | 33 | 0.0 | 0.0 | 0.00 | 0.00 | 0.00 | 86 | 935.5 |
| 20260831080035 | 48 | 56 | 0.0 | 2.0 | 0.00 | 0.00 | 0.00 | 86 | 935.3 |
| 20260831075530 | 48 | 46 | 1.0 | 2.0 | 0.00 | 0.00 | 0.00 | 86 | 935.6 |
| 20260831075026 | 48 | 44 | 0.0 | 0.0 | 0.00 | 0.00 | 0.00 | 86 | 935.7 |
| 20260831074526 | 48 | 50 | 0.0 | 0.0 | 0.00 | 0.00 | 0.00 | 85 | 935.7 |
| 20260831074025 | 48 | 55 | 0.0 | 1.0 | 0.00 | 0.00 | 0.00 | 85 | 935.5 |
| 20260831073520 | 48 | 46 | 0.0 | 0.0 | 0.00 | 0.00 | 0.00 | 85 | 935.6 |
| 20260831073020 | 48 | 68 | 1.0 | 2.0 | 0.00 | 0.00 | 0.00 | 85 | 935.6 |
| 20260831072515 | 48 | 56 | 0.0 | 0.0 | 0.00 | 0.00 | 0.00 | 85 | 935.6 |
| 20260831072012 | 49 | 84 | 0.0 | 0.0 | 0.00 | 0.00 | 0.00 | 85 | 935.3 |
| 20260831071510 | 49 | 56 | 0.0 | 0.0 | 0.00 | 0.00 | 0.00 | 85 | 935.5 |
| 20260831071006 | 49 | 49 | 0.0 | 0.0 | 0.00 | 0.00 | 0.00 | 84 | 935.2 |
| 20260831070504 | 49 | 103 | 0.0 | 2.0 | 0.00 | 0.00 | 0.00 | 84 | 935.3 |
| 20260831070005 | 49 | 78 | 1.0 | 3.0 | 0.00 | 0.00 | 0.00 | 83 | 935.6 |
| 20260831065502 | 49 | 95 | 0.0 | 0.0 | 0.00 | 0.00 | 0.00 | 83 | 935.2 |
| 20260831064957 | 50 | 72 | 0.0 | 3.0 | 0.00 | 0.00 | 0.00 | 82 | 935.3 |
| 20260831064452 | 50 | 37 | 0.0 | 0.0 | 0.00 | 0.00 | 0.00 | 81 | 935.1 |
| 20260831063948 | 51 | 40 | 1.0 | 5.0 | 0.00 | 0.00 | 0.00 | 81 | 934.9 |
| 20260831063443 | 50 | 85 | 0.0 | 5.0 | 0.00 | 0.00 | 0.00 | 81 | 935.2 |
| 20260831062937 | 50 | 50 | 0.0 | 0.0 | 0.00 | 0.00 | 0.00 | 80 | 935.5 |
| 20260831062433 | 50 | 54 | 0.0 | 0.0 | 0.00 | 0.00 | 0.00 | 79 | 935.6 |
| 20260831061932 | 50 | 51 | 1.0 | 1.0 | 0.00 | 0.00 | 0.00 | 79 | 935.3 |
| 20260831061431 | 50 | 60 | 0.0 | 1.0 | 0.00 | 0.00 | 0.00 | 78 | 935.5 |
| 20260831060927 | 51 | 42 | 1.0 | 2.0 | 0.00 | 0.00 | 0.00 | 77 | 935.2 |
| 20260831060422 | 51 | 54 | 0.0 | 2.0 | 0.00 | 0.00 | 0.00 | 77 | 935.2 |
| 20260831055921 | 50 | 48 | 0.0 | 2.0 | 0.00 | 0.01 | 0.01 | 77 | 935.3 |
| 20260831055416 | 50 | 51 | 0.0 | 1.0 | 0.00 | 0.01 | 0.01 | 77 | 935.3 |
| 20260831054912 | 51 | 44 | 0.0 | 0.0 | 0.00 | 0.01 | 0.01 | 76 | 935.6 |
| 20260831054407 | 51 | 76 | 1.0 | 2.0 | 0.00 | 0.01 | 0.01 | 75 | 935.7 |
| 20260831053906 | 51 | 97 | 1.0 | 2.0 | 0.00 | 0.01 | 0.01 | 75 | 935.7 |
| 20260831053404 | 51 | 69 | 2.0 | 3.0 | 0.00 | 0.01 | 0.01 | 74 | 935.5 |
| 20260831052859 | 51 | 88 | 3.0 | 5.0 | 0.00 | 0.01 | 0.01 | 74 | 935.6 |
| 20260831052358 | 51 | 80 | 6.0 | 7.0 | 0.00 | 0.01 | 0.01 | 74 | 935.1 |
| 20260831051856 | 53 | 47 | 1.0 | 1.0 | 0.00 | 0.01 | 0.01 | 72 | 935.5 |
| 20260831051354 | 53 | 52 | 0.0 | 0.0 | 0.00 | 0.01 | 0.01 | 70 | 935.3 |
| 20260831050849 | 52 | 183 | 3.0 | 6.0 | 0.00 | 0.01 | 0.01 | 71 | 935.2 |
| 20260831050343 | 52 | 63 | 0.0 | 2.0 | 0.00 | 0.01 | 0.01 | 72 | 935.1 |
| 20260831045838 | 53 | 112 | 2.0 | 2.0 | 0.00 | 0.01 | 0.01 | 72 | 935.3 |
| 20260831045332 | 53 | 47 | 0.0 | 1.0 | 0.00 | 0.01 | 0.01 | 70 | 935.3 |
| 20260831044827 | 53 | 74 | 0.0 | 0.0 | 0.00 | 0.01 | 0.01 | 69 | 935.3 |
| 20260831044322 | 54 | 109 | 1.0 | 3.0 | 0.00 | 0.01 | 0.01 | 68 | 935.2 |
| 20260831043818 | 54 | 70 | 1.0 | 3.0 | 0.00 | 0.01 | 0.01 | 68 | 935.5 |
| 20260831043317 | 54 | 95 | 2.0 | 5.0 | 0.00 | 0.01 | 0.01 | 67 | 935.2 |
| 20260831042813 | 54 | 59 | 0.0 | 0.0 | 0.00 | 0.01 | 0.01 | 67 | 934.9 |
| 20260831042312 | 55 | 101 | 0.0 | 0.0 | 0.00 | 0.01 | 0.01 | 67 | 934.4 |
| 20260831041808 | 55 | 67 | 0.0 | 0.0 | 0.00 | 0.01 | 0.01 | 67 | 934.3 |
| 20260831041307 | 55 | 83 | 0.0 | 0.0 | 0.00 | 0.01 | 0.01 | 67 | 934.2 |
| 20260831040802 | 55 | 71 | 0.0 | 0.0 | 0.00 | 0.01 | 0.01 | 68 | 934.3 |
| 20260831040301 | 56 | 53 | 0.0 | 0.0 | 0.00 | 0.01 | 0.01 | 68 | 934.4 |
| 20260831035800 | 56 | 75 | 0.0 | 0.0 | 0.00 | 0.01 | 0.01 | 68 | 934.4 |
| 20260831035258 | 57 | 99 | 0.0 | 0.0 | 0.00 | 0.01 | 0.01 | 68 | 934.4 |
| 20260831034758 | 57 | 52 | 0.0 | 0.0 | 0.00 | 0.01 | 0.01 | 68 | 934.2 |
| 20260831034254 | 57 | 52 | 0.0 | 0.0 | 0.00 | 0.01 | 0.01 | 67 | 933.9 |
| 20260831033749 | 58 | 56 | 0.0 | 0.0 | 0.00 | 0.01 | 0.01 | 66 | 933.7 |
| 20260831033248 | 58 | 58 | 0.0 | 0.0 | 0.00 | 0.01 | 0.01 | 66 | 933.6 |
| 20260831032744 | 58 | 44 | 0.0 | 0.0 | 0.00 | 0.01 | 0.01 | 64 | 933.5 |
| 20260831032239 | 57 | 43 | 0.0 | 0.0 | 0.00 | 0.01 | 0.01 | 65 | 933.7 |
| 20260831031734 | 57 | 42 | 0.0 | 0.0 | 0.00 | 0.01 | 0.01 | 66 | 933.7 |
| 20260831031234 | 59 | 37 | 0.0 | 0.0 | 0.00 | 0.01 | 0.01 | 66 | 934.5 |
| 20260831030733 | 60 | 45 | 0.0 | 0.0 | 0.00 | 0.01 | 0.01 | 63 | 934.7 |
| 20260831030227 | 60 | 46 | 0.0 | 0.0 | 0.00 | 0.01 | 0.01 | 58 | 934.4 |
| 20260831025726 | 60 | 51 | 0.0 | 0.0 | 0.00 | 0.01 | 0.01 | 57 | 934.5 |
| 20260831025220 | 60 | 54 | 0.0 | 0.0 | 0.00 | 0.01 | 0.01 | 59 | 934.5 |
| 20260831024716 | 60 | 44 | 0.0 | 0.0 | 0.00 | 0.01 | 0.01 | 57 | 934.1 |
| 20260831024214 | 61 | 42 | 0.0 | 0.0 | 0.00 | 0.01 | 0.01 | 57 | 934.5 |
| 20260831023714 | 62 | 28 | 0.0 | 0.0 | 0.00 | 0.01 | 0.01 | 56 | 934.5 |
| 20260831023213 | 62 | 16 | 0.0 | 0.0 | 0.00 | 0.01 | 0.01 | 51 | 934.4 |
| 20260831022708 | 63 | 15 | 0.0 | 0.0 | 0.00 | 0.01 | 0.01 | 50 | 934.4 |
| 20260831022202 | 63 | 27 | 0.0 | 0.0 | 0.00 | 0.01 | 0.01 | 50 | 934.4 |
| 20260831021702 | 63 | 15 | 0.0 | 0.0 | 0.00 | 0.01 | 0.01 | 51 | 934.5 |
| 20260831021157 | 64 | 14 | 0.0 | 0.0 | 0.00 | 0.01 | 0.01 | 50 | 934.1 |
| 20260831020653 | 65 | 10 | 0.0 | 0.0 | 0.00 | 0.01 | 0.01 | 49 | 934.2 |
| 20260831020147 | 65 | 15 | 0.0 | 0.0 | 0.00 | 0.01 | 0.01 | 47 | 934.2 |
| 20260831015643 | 66 | 323 | 0.0 | 0.0 | 0.00 | 0.01 | 0.01 | 45 | 934.2 |
| 20260831015142 | 67 | 302 | 0.0 | 5.0 | 0.00 | 0.01 | 0.01 | 44 | 934.3 |
| 20260831014637 | 68 | 1 | 0.0 | 1.0 | 0.00 | 0.01 | 0.01 | 42 | 934.1 |
| 20260831014133 | 68 | 6 | 0.0 | 3.0 | 0.00 | 0.01 | 0.01 | 42 | 934.3 |
| 20260831013629 | 68 | 293 | 0.0 | 2.0 | 0.00 | 0.01 | 0.01 | 41 | 934.4 |
| 20260831013128 | 69 | 316 | 0.0 | 0.0 | 0.00 | 0.01 | 0.01 | 42 | 934.5 |
| 20260831012623 | 69 | 359 | 3.0 | 7.0 | 0.00 | 0.01 | 0.01 | 42 | 934.5 |
| 20260831012119 | 69 | 349 | 0.0 | 7.0 | 0.00 | 0.01 | 0.01 | 41 | 934.5 |
| 20260831011618 | 70 | 349 | 0.0 | 0.0 | 0.00 | 0.01 | 0.01 | 40 | 934.2 |
| 20260831011114 | 71 | 354 | 3.0 | 8.0 | 0.00 | 0.01 | 0.01 | 38 | 934.3 |
| 20260831010610 | 71 | 340 | 0.0 | 1.0 | 0.00 | 0.01 | 0.01 | 34 | 934.1 |
| 20260831010105 | 72 | 354 | 0.0 | 5.0 | 0.00 | 0.01 | 0.01 | 32 | 934.1 |
| 20260831005559 | 72 | 274 | 1.0 | 5.0 | 0.00 | 0.01 | 0.01 | 31 | 934.0 |
| 20260831005054 | 72 | 9 | 0.0 | 2.0 | 0.00 | 0.01 | 0.01 | 31 | 933.7 |
| 20260831004550 | 72 | 340 | 6.0 | 10.0 | 0.00 | 0.01 | 0.01 | 29 | 934.0 |
| 20260831004046 | 72 | 296 | 4.0 | 15.0 | 0.00 | 0.01 | 0.01 | 29 | 934.1 |
| 20260831003542 | 73 | 303 | 9.0 | 13.0 | 0.00 | 0.01 | 0.01 | 29 | 934.3 |
| 20260831003038 | 73 | 279 | 6.0 | 11.0 | 0.00 | 0.01 | 0.01 | 32 | 934.2 |
| 20260831002536 | 74 | 308 | 6.0 | 10.0 | 0.00 | 0.01 | 0.01 | 29 | 934.4 |
| 20260831002031 | 74 | 287 | 9.0 | 14.0 | 0.00 | 0.01 | 0.01 | 30 | 934.2 |
| 20260831001527 | 74 | 357 | 7.0 | 14.0 | 0.00 | 0.01 | 0.01 | 29 | 934.3 |
| 20260831001023 | 74 | 304 | 3.0 | 13.0 | 0.00 | 0.01 | 0.01 | 28 | 934.1 |
| 20260831000519 | 74 | 355 | 6.0 | 14.0 | 0.00 | 0.01 | 0.01 | 29 | 934.4 |
| 20260831000018 | 74 | 348 | 7.0 | 16.0 | 0.00 | 0.01 | 0.01 | 28 | 934.2 |
| 20260830235512 | 74 | 346 | 5.0 | 16.0 | 0.00 | 0.01 | 0.01 | 30 | 934.4 |
| 20260830235007 | 75 | 307 | 6.0 | 15.0 | 0.00 | 0.01 | 0.01 | 29 | 933.9 |
| 20260830234502 | 75 | 258 | 5.0 | 11.0 | 0.00 | 0.01 | 0.01 | 29 | 933.9 |
| 20260830233957 | 74 | 2 | 5.0 | 9.0 | 0.00 | 0.01 | 0.01 | 31 | 934.0 |
| 20260830233453 | 75 | 300 | 3.0 | 9.0 | 0.00 | 0.01 | 0.01 | 30 | 934.2 |
| 20260830232949 | 75 | 312 | 3.0 | 13.0 | 0.00 | 0.01 | 0.01 | 31 | 934.0 |
| 20260830232444 | 75 | 307 | 4.0 | 11.0 | 0.00 | 0.01 | 0.01 | 31 | 933.9 |
| 20260830231940 | 75 | 265 | 6.0 | 11.0 | 0.00 | 0.01 | 0.01 | 31 | 934.0 |
| 20260830231435 | 75 | 335 | 1.0 | 10.0 | 0.00 | 0.01 | 0.01 | 31 | 934.3 |
| 20260830230934 | 75 | 11 | 2.0 | 14.0 | 0.00 | 0.01 | 0.01 | 31 | 934.5 |
| 20260830230430 | 75 | 218 | 0.0 | 1.0 | 0.00 | 0.01 | 0.01 | 32 | 934.2 |
| 20260830225929 | 75 | 306 | 1.0 | 17.0 | 0.00 | 0.01 | 0.01 | 33 | 934.3 |
| 20260830225425 | 75 | 299 | 2.0 | 14.0 | 0.00 | 0.01 | 0.01 | 33 | 934.1 |
| 20260830224920 | 74 | 222 | 6.0 | 13.0 | 0.00 | 0.01 | 0.01 | 34 | 934.1 |
| 20260830224419 | 75 | 244 | 4.0 | 16.0 | 0.00 | 0.01 | 0.01 | 34 | 934.2 |
| 20260830223916 | 75 | 336 | 11.0 | 14.0 | 0.00 | 0.01 | 0.01 | 33 | 934.1 |
| 20260830223412 | 74 | 301 | 6.0 | 11.0 | 0.00 | 0.01 | 0.01 | 35 | 934.1 |
| 20260830222911 | 74 | 337 | 11.0 | 15.0 | 0.00 | 0.01 | 0.01 | 35 | 934.4 |
| 20260830222406 | 75 | 301 | 11.0 | 18.0 | 0.00 | 0.01 | 0.01 | 35 | 934.1 |
| 20260830221902 | 75 | 268 | 13.0 | 16.0 | 0.00 | 0.01 | 0.01 | 35 | 934.0 |
| 20260830221358 | 75 | 334 | 6.0 | 11.0 | 0.00 | 0.01 | 0.01 | 35 | 934.2 |
| 20260830220853 | 75 | 250 | 9.0 | 11.0 | 0.00 | 0.01 | 0.01 | 36 | 934.0 |
| 20260830220352 | 75 | 258 | 1.0 | 11.0 | 0.00 | 0.01 | 0.01 | 36 | 934.2 |
| 20260830215851 | 74 | 264 | 3.0 | 5.0 | 0.00 | 0.01 | 0.01 | 38 | 934.1 |
| 20260830215350 | 74 | 306 | 4.0 | 7.0 | 0.00 | 0.01 | 0.01 | 37 | 934.5 |
| 20260830214845 | 74 | 296 | 10.0 | 14.0 | 0.00 | 0.01 | 0.01 | 39 | 934.4 |
| 20260830214341 | 74 | 254 | 6.0 | 9.0 | 0.00 | 0.01 | 0.01 | 37 | 934.3 |
| 20260830213840 | 74 | 250 | 8.0 | 8.0 | 0.00 | 0.01 | 0.01 | 37 | 934.3 |
| 20260830213336 | 75 | 358 | 0.0 | 9.0 | 0.00 | 0.01 | 0.01 | 37 | 934.3 |
| 20260830212831 | 74 | 250 | 5.0 | 13.0 | 0.00 | 0.01 | 0.01 | 38 | 934.4 |
| 20260830212327 | 76 | 265 | 1.0 | 13.0 | 0.00 | 0.01 | 0.01 | 36 | 934.4 |
| 20260830211826 | 75 | 295 | 8.0 | 10.0 | 0.00 | 0.01 | 0.01 | 35 | 934.4 |
| 20260830211320 | 74 | 250 | 5.0 | 11.0 | 0.00 | 0.01 | 0.01 | 37 | 934.5 |
| 20260830210816 | 75 | 76 | 3.0 | 11.0 | 0.00 | 0.01 | 0.01 | 36 | 934.7 |
| 20260830210315 | 74 | 295 | 3.0 | 8.0 | 0.00 | 0.01 | 0.01 | 38 | 934.8 |
| 20260830205814 | 75 | 274 | 6.0 | 10.0 | 0.00 | 0.01 | 0.01 | 35 | 934.7 |
| 20260830205313 | 75 | 235 | 5.0 | 11.0 | 0.00 | 0.01 | 0.01 | 36 | 934.5 |
| 20260830204809 | 74 | 294 | 6.0 | 14.0 | 0.00 | 0.01 | 0.01 | 38 | 934.7 |
| 20260830204307 | 74 | 267 | 2.0 | 8.0 | 0.00 | 0.01 | 0.01 | 37 | 934.7 |
| 20260830203803 | 74 | 239 | 11.0 | 16.0 | 0.00 | 0.01 | 0.01 | 34 | 934.5 |
| 20260830203259 | 75 | 302 | 5.0 | 8.0 | 0.00 | 0.01 | 0.01 | 36 | 934.7 |
| 20260830202758 | 74 | 284 | 0.0 | 13.0 | 0.00 | 0.01 | 0.01 | 36 | 934.5 |
| 20260830202254 | 75 | 270 | 9.0 | 11.0 | 0.00 | 0.01 | 0.01 | 35 | 934.7 |
| 20260830201754 | 75 | 260 | 5.0 | 9.0 | 0.00 | 0.01 | 0.01 | 38 | 934.7 |
| 20260830201249 | 74 | 243 | 10.0 | 14.0 | 0.00 | 0.01 | 0.01 | 37 | 934.7 |
| 20260830200744 | 74 | 259 | 8.0 | 13.0 | 0.00 | 0.01 | 0.01 | 38 | 934.7 |
| 20260830200243 | 73 | 272 | 9.0 | 15.0 | 0.00 | 0.01 | 0.01 | 38 | 934.4 |
| 20260830195739 | 73 | 301 | 9.0 | 14.0 | 0.00 | 0.01 | 0.01 | 38 | 934.7 |
| 20260830195237 | 74 | 255 | 3.0 | 9.0 | 0.00 | 0.01 | 0.01 | 38 | 934.7 |
| 20260830194736 | 74 | 235 | 5.0 | 10.0 | 0.00 | 0.01 | 0.01 | 39 | 934.7 |
| 20260830194231 | 73 | 248 | 4.0 | 13.0 | 0.00 | 0.01 | 0.01 | 42 | 934.9 |
| 20260830193731 | 74 | 259 | 3.0 | 9.0 | 0.00 | 0.01 | 0.01 | 39 | 934.8 |
| 20260830193226 | 73 | 164 | 4.0 | 9.0 | 0.00 | 0.01 | 0.01 | 41 | 934.7 |
| 20260830192722 | 72 | 195 | 2.0 | 6.0 | 0.00 | 0.01 | 0.01 | 43 | 934.7 |
| 20260830192216 | 73 | 281 | 7.0 | 10.0 | 0.00 | 0.01 | 0.01 | 41 | 934.8 |
| 20260830191708 | 73 | 255 | 12.0 | 16.0 | 0.00 | 0.01 | 0.01 | 42 | 934.8 |
| 20260830191207 | 73 | 256 | 8.0 | 11.0 | 0.00 | 0.01 | 0.01 | 39 | 934.9 |
| 20260830190702 | 73 | 254 | 9.0 | 14.0 | 0.00 | 0.01 | 0.01 | 40 | 934.9 |
| 20260830190202 | 72 | 286 | 5.0 | 8.0 | 0.00 | 0.01 | 0.01 | 43 | 934.8 |
| 20260830185700 | 72 | 248 | 7.0 | 10.0 | 0.00 | 0.01 | 0.01 | 44 | 934.9 |
| 20260830185157 | 70 | 256 | 4.0 | 11.0 | 0.00 | 0.01 | 0.01 | 47 | 934.7 |
| 20260830184655 | 71 | 261 | 0.0 | 8.0 | 0.00 | 0.01 | 0.01 | 48 | 934.8 |
| 20260830184155 | 70 | 222 | 6.0 | 13.0 | 0.00 | 0.01 | 0.01 | 47 | 934.8 |
| 20260830183650 | 71 | 10 | 4.0 | 13.0 | 0.00 | 0.01 | 0.01 | 47 | 934.5 |
| 20260830183146 | 70 | 329 | 5.0 | 11.0 | 0.00 | 0.01 | 0.01 | 49 | 934.7 |
| 20260830182646 | 70 | 353 | 2.0 | 7.0 | 0.00 | 0.01 | 0.01 | 49 | 934.7 |
| 20260830182143 | 69 | 313 | 4.0 | 8.0 | 0.00 | 0.01 | 0.01 | 49 | 934.7 |
| 20260830181638 | 70 | 328 | 6.0 | 10.0 | 0.00 | 0.01 | 0.01 | 49 | 934.8 |
| 20260830181138 | 69 | 328 | 5.0 | 8.0 | 0.00 | 0.01 | 0.01 | 49 | 934.7 |
| 20260830180637 | 68 | 288 | 1.0 | 11.0 | 0.00 | 0.01 | 0.01 | 49 | 934.7 |
| 20260830180132 | 69 | 212 | 3.0 | 9.0 | 0.00 | 0.01 | 0.01 | 50 | 934.8 |
| 20260830175631 | 70 | 334 | 0.0 | 7.0 | 0.00 | 0.01 | 0.01 | 51 | 934.8 |
| 20260830175126 | 70 | 313 | 1.0 | 6.0 | 0.00 | 0.01 | 0.01 | 52 | 934.5 |
| 20260830174622 | 70 | 335 | 0.0 | 7.0 | 0.00 | 0.01 | 0.01 | 52 | 934.9 |
| 20260830174117 | 70 | 314 | 5.0 | 9.0 | 0.00 | 0.01 | 0.01 | 50 | 934.8 |
| 20260830173612 | 70 | 299 | 5.0 | 9.0 | 0.00 | 0.01 | 0.01 | 50 | 934.8 |
| 20260830173107 | 70 | 272 | 4.0 | 7.0 | 0.00 | 0.01 | 0.01 | 52 | 934.8 |
| 20260830172604 | 70 | 269 | 5.0 | 10.0 | 0.00 | 0.01 | 0.01 | 50 | 934.8 |
| 20260830172100 | 69 | 306 | 3.0 | 7.0 | 0.00 | 0.01 | 0.01 | 54 | 934.5 |
| 20260830171550 | 69 | 256 | 2.0 | 6.0 | 0.00 | 0.01 | 0.01 | 55 | 934.9 |
| 20260830171045 | 69 | 260 | 7.0 | 9.0 | 0.00 | 0.01 | 0.01 | 56 | 934.8 |
| 20260830170544 | 69 | 225 | 3.0 | 3.0 | 0.00 | 0.01 | 0.01 | 56 | 934.5 |
| 20260830170043 | 69 | 349 | 3.0 | 9.0 | 0.00 | 0.01 | 0.01 | 57 | 934.7 |
| 20260830165538 | 68 | 314 | 3.0 | 7.0 | 0.00 | 0.01 | 0.01 | 58 | 934.5 |
| 20260830165034 | 68 | 227 | 7.0 | 13.0 | 0.00 | 0.01 | 0.01 | 58 | 934.7 |
| 20260830164530 | 68 | 198 | 2.0 | 6.0 | 0.00 | 0.01 | 0.01 | 58 | 934.7 |
| 20260830164026 | 68 | 298 | 2.0 | 5.0 | 0.00 | 0.01 | 0.01 | 61 | 934.4 |
| 20260830163523 | 67 | 212 | 1.0 | 8.0 | 0.00 | 0.01 | 0.01 | 63 | 934.7 |
| 20260830163022 | 66 | 194 | 6.0 | 8.0 | 0.00 | 0.01 | 0.01 | 62 | 934.4 |
| 20260830162518 | 66 | 205 | 6.0 | 9.0 | 0.00 | 0.01 | 0.01 | 63 | 934.4 |
| 20260830162013 | 65 | 251 | 5.0 | 7.0 | 0.00 | 0.01 | 0.01 | 67 | 934.4 |
| 20260830161507 | 64 | 183 | 4.0 | 8.0 | 0.00 | 0.01 | 0.01 | 70 | 934.7 |
| 20260830161001 | 62 | 161 | 2.0 | 2.0 | 0.00 | 0.01 | 0.01 | 76 | 934.8 |
| 20260830160458 | 62 | 52 | 1.0 | 2.0 | 0.00 | 0.01 | 0.01 | 80 | 934.7 |
| 20260830155953 | 61 | 44 | 0.0 | 5.0 | 0.00 | 0.01 | 0.01 | 81 | 934.8 |
| 20260830155450 | 61 | 97 | 3.0 | 3.0 | 0.00 | 0.01 | 0.01 | 81 | 934.9 |